Regional Weather Roundup
Issued by NWS

Home | Current Version | Previous Version | Text Only | Print | Product List | Glossary Off
Versions: 1 2 3 4 5 6 7 8 9 10 11 12 13 14 15 16 17 18 19 20 21 22 23 24 25 26 27 28 29 30 31 32 33 34 35 36 37 38 39 40 41 42 43 44 45 46 47 48 49 50

000
ASUS43 KMPX 231710
RWRMN
WEATHER ROUNDUP FOR MINNESOTA
NATIONAL WEATHER SERVICE TWIN CITIES/CHANHASSEN MN
1200 PM CDT WED JUL 23 2014


NOTE: "FAIR" INDICATES FEW OR NO CLOUDS BELOW 12,000 FEET WITH NO
SIGNIFICANT WEATHER AND/OR OBSTRUCTIONS TO VISIBILITY. N/A MEANS
CURRENT SKY AND/OR WEATHER CONDITIONS ARE NOT AVAILABLE.

MNZ060>063-068>070-231800-
   Twin Cities Metro

CITY           SKY/WX    TMP DP  RH WIND       PRES   REMARKS
TWIN CITIES    MOSUNNY   78  51  38 VRB7      30.23F
ST PAUL        PTSUNNY   78  55  44 N5        30.23S
CRYSTAL        PTSUNNY   79  51  37 N8        30.22F
BLAINE         MOSUNNY   79  55  44 N7          N/A
LAKEVILLE      SUNNY     75  54  46 NW5       30.24S
EDEN PRAIRIE   MOSUNNY   79  54  41 VRB7      30.23S
SOUTH ST PAUL  MOSUNNY   77  50  38 NW8       30.23S
LAKE ELMO      FAIR      77  55  47 NW5       30.24S
$$
MNZ001>005-007-008-013>017-022>024-027-028-231800-
   Northwest Minnesota

CITY           SKY/WX    TMP DP  RH WIND       PRES   REMARKS
BEMIDJI        MOSUNNY   71  51  50 NW8       30.29S
HALLOCK          N/A     70 N/A N/A N9        30.30F
ROSEAU         MOSUNNY   70  57  64 CALM      30.30S
WARROAD        MOSUNNY   68  57  68 E10       30.31S
THIEF RVR FALL MOSUNNY   70  55  60 N8        30.29F
CROOKSTON      PTSUNNY   70  57  64 N7        30.30F
FOSSTON        PTSUNNY   70  55  60 CALM      30.30S
DETROIT LAKES  PTSUNNY   72  55  56 NW7       30.31S
MOORHEAD       MOSUNNY   72  64  78 NE6       30.29S
PARK RAPIDS    MOSUNNY   73  53  49 N12G17    30.28S
$$
MNZ006-009>011-018-025>026-231800-
   North Central Minnesota

CITY           SKY/WX    TMP DP  RH WIND       PRES   REMARKS
BAUDETTE       PTSUNNY   68  53  58 VRB3      30.30F
FLAG ISLAND    SUNNY     66  48  52 N5        30.29S
INTL FALLS     PTSUNNY   67  47  48 N7        30.28F
WASKISH        PTSUNNY   70  57  64 CALM      30.28F
BIG FORK       PTSUNNY   70  54  56 N5        30.29S
LONGVILLE      MOSUNNY   72  57  60 NE6       30.27F
GRAND RAPIDS   PTSUNNY   70  54  56 N8        30.28S
CRANE LAKE     MOSUNNY   66  50  55 N5        30.29S
ORR            PTSUNNY   70  50  49 NW3       30.26S
COOK           MOSUNNY   66  52  59 CALM      30.28S
$$
MNZ012-019>021-037-231800-
   Northeast Minnesota

CITY           SKY/WX    TMP DP  RH WIND       PRES   REMARKS
DULUTH         MOSUNNY   72  52  49 N9        30.25F
ELY            PTSUNNY   64  50  59 NW7       30.27S
HIBBING        MOSUNNY   71  52  50 N10G17    30.27S
EVELETH        PTSUNNY   72  54  53 N9        30.28R
DULUTH HARBOR  MOSUNNY   70  59  68 E5        30.25S
TWO HARBORS    PTSUNNY   68  55  64 SE7       30.23F
SILVER BAY     SUNNY     70  57  64 S7        30.23S
GRAND MARAIS     N/A     61  54  77 CALM      30.25R
G MARAIS ARPRT MOSUNNY   66  46  48 NE3       30.27S
$$
MNZ029>031-032-039>041-046>048-054>057-064-231800-
   West Central Minnesota

CITY           SKY/WX    TMP DP  RH WIND       PRES   REMARKS
FERGUS FALLS   PTSUNNY   73  52  46 CALM      30.28S
WHEATON        MOSUNNY   73  54  49 CALM      30.30S
MORRIS         SUNNY     77  57  50 N7        30.28S
ALEXANDRIA     MOSUNNY   73  53  49 N9        30.30S
ELBOW LAKE     FAIR      73  56  54 N6        30.28F
WADENA         PTSUNNY   70  55  60 N5        30.28F
GLENWOOD       SUNNY     75  55  50 N3        30.29S
APPLETON       MOSUNNY   79  48  34 NE7       30.27F
BENSON         SUNNY     77  54  44 E8        30.28S
ORTONVILLE     SUNNY     75  52  43 CALM      30.29S
MADISON        SUNNY     79  55  44 CALM      30.28S
WILLMAR        FAIR      77  48  36 N7        30.28F
$$
MNZ033>034-036-042>043-049>051-058-059-231800-
   Central Minnesota

CITY           SKY/WX    TMP DP  RH WIND       PRES   REMARKS
ST CLOUD       MOSUNNY   77  54  44 NW9       30.25F
SAUK CENTRE    FAIR      74  54  49 N8        30.28S
PAYNESVILLE    SUNNY     74  47  38 NW8       30.27F HAZE
AITKIN         MOSUNNY   73  59  60 N7        30.25F
PINE RIVER     MOSUNNY   72  55  56 NW6       30.30R
BRAINERD       SUNNY     72  52  49 N7        30.27S
STAPLES        PTSUNNY   70  55  60 NW8       30.28S
LONG PRAIRIE   FAIR      72  55  56 NW7       30.29S
LITTLE FALLS   MOSUNNY   72  52  49 NW5       30.26S
LITCHFIELD     SUNNY     75  50  41 N7        30.27S
BUFFALO        MOSUNNY   76  51  40 N7        30.26S
MAPLE LAKE     MOSUNNY   77  56  47 N6        30.26F
$$
MNZ037-044-045-052-053-231800-
   East Central Minnesota

CITY           SKY/WX    TMP DP  RH WIND       PRES   REMARKS
PRINCETON      MOSUNNY   77  55  47 NW8       30.25S
MORA           MOSUNNY   72  55  56 CALM      30.26S
CAMBRIDGE      MOSUNNY   79  57  47 NW10G16   30.23R
RUSH CITY      MOSUNNY   75  56  52 N5        30.24S
MOOSE LAKE     PTSUNNY   72  55  56 CALM      30.23F
HINCKLEY       FAIR      73  61  64 CALM      30.25S
CLOQUET        PTSUNNY   72  54  53 NW10      30.25S
MCGREGOR       PTSUNNY   72  57  60 N7        30.27S
$$
MNZ071>073-080-081-089-090-097-098-231800-
   Southwest Minnesota

CITY           SKY/WX    TMP DP  RH WIND       PRES   REMARKS
MONTEVIDEO     SUNNY     81  55  41 CALM      30.28F
GRANITE FALLS  MOSUNNY   77  54  45 NE3       30.29F
CANBY          SUNNY     76  54  46 CALM      30.30S
MARSHALL       SUNNY     75  54  46 CALM      30.28S
REDWOOD FALLS  SUNNY     78  51  38 NE6       30.26F
OLIVIA         SUNNY     77  52  41 N7        30.26S
PIPESTONE      SUNNY     73  52  46 SE7       30.29F
WINDOM         MOSUNNY   75  55  50 NE6       30.28S
WORTHINGTON    MOSUNNY   75  57  53 NE8       30.29F
JACKSON        MOSUNNY   77  59  53 E7        30.28S
TRACY          MOSUNNY   76  52  43 E3        30.28F
SLAYTON        SUNNY     74  51  44 CALM      30.30F
$$
MNZ065>067-074>077-082>085-091>093-231800-
   South Central Minnesota

CITY           SKY/WX    TMP DP  RH WIND       PRES   REMARKS
MANKATO        MOSUNNY   75  52  43 N5        30.26S
NEW ULM        SUNNY     75  52  43 NE7       30.26S
ST JAMES       MOSUNNY   79  54  41 NE5       30.27S
FAIRMONT       PTSUNNY   75  55  50 NE5       30.26S
GLENCOE        MOSUNNY   77  51  40 N6        30.26S
FARIBAULT      MOSUNNY   79  45  29 N5        30.26R
OWATONNA       MOSUNNY   75  54  46 NE3       30.26R
WASECA         MOSUNNY   72  52  49 CALM      30.28R
ALBERT LEA     PTSUNNY   75  55  50 N5        30.25S
$$
MNZ078>079-086>088-094>096-231800-
   Southeast Minnesota

CITY           SKY/WX    TMP DP  RH WIND       PRES   REMARKS
ROCHESTER      PTSUNNY   73  55  53 N5        30.25F
RED WING       PTSUNNY   77  52  41 N5        30.22R
STANTON        MOSUNNY   78  48  35 NE7       30.23S
DODGE CENTER   SUNNY     75  57  53 CALM      30.25S
WINONA         SUNNY     77  59  53 SE5       30.22F
AUSTIN         MOSUNNY   77  52  41 N3        30.25S
PRESTON        MOSUNNY   72  61  66 NE6       30.26S
$$
ABBREVIATIONS USED IN REMARKS
   TC - TEMPERATURES IN CELSIUS
  WCI - WIND CHILL INDEX
   HX - HEAT INDEX
  VSB - VISIBILITY
$$


USA.gov is the U.S. government's official web portal to all federal, state and local government web resources and services.